LiveATC.Net - Listen to live air traffic control over the Internet!


ICAO: S50  IATA: S50   Airport: Auburn Municipal Airport
City: Auburn   State/Province: Washington
Country: United States   Continent: North America
KSEA METAR Weather: KSEA 221953Z 26008KT 10SM FEW040 FEW110 BKN230 18/08 A3022 RMK AO2 SLP240 T01830078
S50 Flight Activity (FlightAware)
S50 Webcam:  (Airport Webcams) 

Auburn CTAF
Feed Status: UP   Listeners: 0
Listen in your browser - HTML5 player (in browser, HTML5)
Click here to listen with your own player (launches your MP3 player)
Archive Access: Auburn CTAF
FacilityFrequency
Auburn CTAF/UNICOM122.800
Feed sponsored by: Auburn Municipal Airport

NOTICE

Unauthorized use prohibited. See LiveATC.net Terms of Service


Airport/ARTCC Code
Frequency Search
(e.g., 124.400, 128.75)
Site-wide search
 


Browse Feeds
Top 50 Feeds
HF Oceanic Feeds
Coverage Map
Bad Weather Areas

LiveATC FAQ
Offer LiveATC feed
Contact LiveATC.net
Press Inquiries

LiveATC on iPhone
LiveATC on Android

LiveATC Mobile
(Mobile browser)

ATC Audio Archives
Interesting Recordings

LiveATC Forums


Home Page
About LiveATC.net


Terms of Use
Privacy Policy

AIRMETs/SIGMETs

FAA Airport Status
NAS Status
Arrival Demand


Server Software By:
Icecast.org
Liquidsoap